CAPE
0 0 0 0 0 0 0 0 0 0 0 0 0 0 0 0 0 0 0 0 0 0 0 0 0 0 0 0 0 0 0 0 0 0 0 0 0 0 0 0 0 0 0 0
0 0 0 0 0 0 0 0 0 0 0 0 0 0 0 0 0 0 0 0 0 0 0 0 0 0 0 0 0 0 0 0 0 0 0 0 0 0 0 0 0 0 0 0
0 0 0 0 0 0 0 0 0 0 0 0 0 0 0 0 0 0 0 0 0 0 0 0 0 0 0 0 0 0 0 0 0 0 0 0 0 0 0 0 0 0 0 0
0 0 0 0 0 0 0 0 0 0 0 0 0 0 0 0 0 0 0 0 0 0 0 0 0 0 0 0 0 0 0 0 0 0 0 0 0 0 0 0 0 0 0 0
0 0 0 0 0 0 0 0 0 0 0 0 0 0 0 0 0 0 0 0 0 0 0 0 0 0 0 0 0 0 0 0 0 0 0 0 0 0 0 0 0 0 0 0
0 0 0 0 0 0 0 0 0 0 0 0 0 0 0 0 0 0 0 0 0 0 0 0 0 0 0 0 0 0 0 0 0 0 0 0 0 0 0 0 0 0 0 0
0 0 0 0 0 0 0 0 0 0 0 0 0 0 0 0 0 0 0 0 0 0 0 0 0 0 0 0 0 0 0 0 0 0 0 0 0 0 0 0 0 0 0 0
0 0 0 0 0 0 0 0 0 0 0 0 0 0 0 0 0 0 0 0 0 0 0 0 0 0 0 0 0 0 0 0 0 0 0 0 0 0 0 0 0 0 0 0
0 0 0 0 0 0 0 0 0 0 0 0 0 0 0 0 0 0 0 0 0 0 0 0 0 0 0 0 0 0 0 0 0 0 0 0 0 0 0 0 0 0 0 0
0 0 0 0 0 0 0 0 0 0 0 0 0 0 0 0 0 0 0 0 0 0 0 0 0 0 0 0 0 0 0 0 0 0 0 0 0 0 0 0 0 0 0 0
0 0 0 0 0 0 0 0 0 0 0 0 0 0 0 0 0 0 0 0 0 0 0 0 0 0 0 0 0 0 0 0 0 0 0 0 0 0 0 0 0 0 0 0
0 0 0 0 0 0 0 0 0 0 0 0 0 0 0 0 0 0 0 0 0 0 0 0 0 0 0 0 0 0 0 0 0 0 0 0 0 0 0 0 0 0 0 0
0 0 0 0 0 0 0 0 0 0 0 0 0 0 0 0 0 0 0 0 0 0 0 0 0 0 0 0 0 0 0 0 0 0 0 0 0 0 0 0 0 0 0 0
0 0 0 0 0 0 0 0 0 0 0 0 0 0 0 0 0 0 0 0 0 0 0 0 0 0 0 0 0 0 0 0 0 0 0 0 0 0 0 0 0 0 0 0
0 0 0 0 0 0 0 0 0 0 0 0 0 0 0 0 0 0 0 0 0 0 0 0 0 0 0 0 0 0 0 0 0 0 0 0 0 0 0 0 0 0 0 0
0 0 0 0 0 0 0 0 0 0 0 0 0 0 0 0 0 0 0 0 0 0 0 0 0 0 0 0 0 0 0 0 0 0 0 0 0 0 0 0 0 0 0 0
0 0 1 0 0 0 1 0 0 0 0 0 0 0 0 0 0 0 0 0 0 0 0 0 0 0 0 0 0 0 0 0 0 0 0 0 0 0 0 0 0 0 0 0
0 0 1 0 0 0 0 0 0 0 0 0 0 0 0 0 0 0 0 0 0 0 0 0 0 0 0 0 0 0 0 0 0 0 0 0 0 0 0 0 0 0 0 0
0 1 0 0 0 0 0 0 0 0 0 0 0 0 0 0 0 0 0 0 0 0 0 0 0 0 0 0 0 0 0 0 0 0 0 0 0 0 0 0 0 0 0 0
1 0 0 0 0 0 0 0 0 0 0 0 0 0 0 0 0 0 0 0 0 0 0 0 0 0 0 0 0 0 0 0 0 0 0 0 0 0 0 0 0 0 0 0
0 0 0 0 0 0 0 0 0 0 0 0 0 0 0 0 0 0 0 0 0 0 0 0 0 0 0 0 0 0 0 0 0 0 0 0 0 0 0 0 0 0 0 0
0 4 0 0 0 1 0 0 0 0 0 0 0 0 0 0 0 0 0 0 0 0 0 0 0 0 0 0 0 0 0 0 0 0 0 0 0 0 0 0 0 0 0 0
6 2 3 3 0 0 0 0 0 0 0 0 0 0 0 0 0 0 0 0 0 0 0 0 0 0 0 0 0 0 0 0 0 0 0 0 0 0 0 0 0 0 0 0
0 0 0 0 0 0 0 0 1 1 3 0 0 0 1 2 0 0 0 0 0 0 0 0 0 0 0 0 0 0 0 0 0 0 0 0 0 0 0 0 0 0 0 0
0 0 0 0 0 0 0 0 0 0 0 0 0 0 0 0 0 0 3 0 0 0 0 0 0 0 0 0 0 0 0 0 0 0 0 0 0 0 0 0 0 0 0 0
0 0 0 0 0 0 0 0 0 0 0 0 0 0 0 0 0 0 0 1 0 0 0 0 0 0 0 0 0 0 0 0 0 0 0 0 0 0 0 0 0 0 0 0
CIN
0 0 0 0 0 0 0 0 0 0 0 0 0 0 0 0 0 0 0 0 0 0 0 0 0 0 0 0 0 0 0 0 0 0 0 0 0 0 0 0 0 0 0 0
0 0 0 0 0 0 0 0 0 0 0 0 0 0 0 0 0 0 0 0 0 0 0 0 0 0 0 0 0 0 0 0 0 0 0 0 0 0 0 0 0 0 0 0
0 0 0 0 0 0 0 0 0 0 0 0 0 0 0 0 0 0 0 0 0 0 0 0 0 0 0 0 0 0 0 0 0 0 0 0 0 0 0 0 0 0 0 0
0 0 0 0 0 0 0 0 0 0 0 0 0 0 0 0 0 0 0 0 0 0 0 0 0 0 0 0 0 0 0 0 0 0 0 0 0 0 0 0 0 0 0 0
0 0 0 0 0 0 0 0 0 0 0 0 0 0 0 0 0 0 0 0 0 0 0 0 0 0 0 0 0 0 0 0 0 0 0 0 0 0 0 0 0 0 0 0
0 0 0 0 0 0 0 0 0 0 0 0 0 0 0 0 0 0 0 0 0 0 0 0 0 0 0 0 0 0 0 0 0 0 0 0 0 0 0 0 0 0 0 0
0 0 0 0 0 0 0 0 0 0 0 0 0 0 0 0 0 0 0 0 0 0 0 0 0 0 0 0 0 0 0 0 0 0 0 0 0 0 0 0 0 0 0 0
0 0 0 0 0 0 0 0 0 0 0 0 0 0 0 0 0 0 0 0 0 0 0 0 0 0 0 0 0 0 0 0 0 0 0 0 0 0 0 0 0 0 0 0
0 0 0 0 0 0 0 0 0 0 0 0 0 0 0 0 0 0 0 0 0 0 0 0 0 0 0 0 0 0 0 0 0 0 0 0 0 0 0 0 0 0 0 0
0 0 0 0 0 0 0 0 0 0 0 0 0 0 0 0 0 0 0 0 0 0 0 0 0 0 0 0 0 0 0 0 0 0 0 0 0 0 0 0 0 0 0 0
0 0 0 0 0 0 0 0 0 0 0 0 0 0 0 0 0 0 0 0 0 0 0 0 0 0 0 0 0 0 0 0 0 0 0 0 0 0 0 0 0 0 0 0
0 0 0 0 0 0 0 0 0 0 0 0 0 0 0 0 0 0 0 0 0 0 0 0 0 0 0 0 0 0 0 0 0 0 0 0 0 0 0 0 0 0 0 0
0 0 0 0 0 0 0 0 0 0 0 0 0 0 0 0 0 0 0 0 0 0 0 0 0 0 0 0 0 0 0 0 0 0 0 0 0 0 0 0 0 0 0 0
0 0 0 0 0 0 0 0 0 0 0 0 0 0 0 0 0 0 0 0 0 0 0 0 0 0 0 0 0 0 0 0 0 0 0 0 0 0 0 0 0 0 0 0
0 0 0 0 0 0 0 0 0 0 0 0 0 0 0 0 0 0 0 0 0 0 0 0 0 0 0 0 0 0 0 0 0 0 0 0 0 0 0 0 0 0 0 0
0 0 0 0 0 0 0 0 0 0 0 0 0 0 0 0 0 0 0 0 0 0 0 0 0 0 0 0 0 0 0 0 0 0 0 0 0 0 0 0 0 0 0 0
0 0 0 0 0 0 0 0 0 0 0 0 0 0 0 0 0 0 0 0 0 0 0 0 0 0 0 0 0 0 0 0 0 0 0 0 0 0 0 0 0 0 0 0
0 0 0 0 0 0 0 0 0 0 0 0 0 0 0 0 0 0 0 0 0 0 0 0 0 0 0 0 0 0 0 0 0 0 0 0 0 0 0 0 0 0 0 0
0 0 0 0 0 0 0 0 0 0 0 0 0 0 0 0 0 0 0 0 0 0 0 0 0 0 0 0 0 0 0 0 0 0 0 0 0 0 0 0 0 0 0 0
0 0 0 0 0 0 0 0 0 0 0 0 0 0 0 0 0 0 0 0 0 0 0 0 0 0 0 0 0 0 0 0 0 0 0 0 0 0 0 0 0 0 0 0
0 0 0 0 0 -3 0 0 0 0 0 0 0 0 0 0 0 0 0 0 0 0 0 0 0 0 0 0 0 0 0 0 0 0 0 0 0 0 0 0 0 0 0 0
-1 -4 0 0 0 -9 0 -2 0 0 0 0 0 0 0 0 0 0 0 0 0 0 0 0 0 0 0 0 0 0 0 0 0 0 0 0 0 0 0 0 0 0 0 0
-33 -2 -2 -3 0 0 0 0 0 0 0 0 0 0 0 0 0 0 0 0 0 0 0 0 0 0 0 0 0 0 0 0 0 0 0 0 0 0 0 0 0 0 0 0
0 0 -2 0 0 0 0 0 0 0 0 0 0 0 0 0 0 0 0 0 0 0 0 0 0 0 0 0 0 0 0 0 0 0 0 0 0 0 0 0 0 0 0 0
0 0 0 0 0 0 0 0 0 0 0 0 0 0 0 0 0 0 0 0 0 0 0 0 0 0 0 0 0 0 0 0 0 0 0 0 0 0 0 0 0 0 0 0
0 0 0 0 0 0 0 0 0 0 0 0 0 0 0 0 0 0 0 -1 0 0 0 0 0 0 0 0 0 0 0 0 0 0 0 0 0 0 0 0 0 0 0 0
Wind_Speed
22 25 20 28 29 31 38 42 40 33 33 31 31 34 35 40 44 30 26 24 26 23 20 16 13 11 10 10 10 10 10 9 9 11 13 15 17 17 17 18 20 21 23 25
27 30 23 29 32 34 34 37 29 40 35 32 38 39 35 28 28 25 19 24 30 25 17 14 10 9 9 10 11 11 12 11 12 13 15 16 15 17 18 18 20 21 23 25
33 30 30 31 29 29 29 30 31 39 40 33 41 45 38 29 25 23 22 25 26 21 15 11 9 9 9 10 11 11 12 13 13 13 14 15 16 18 20 20 21 21 23 24
37 35 33 32 30 26 32 27 28 35 37 31 32 51 50 49 32 23 15 14 21 14 11 10 9 9 9 10 10 10 11 12 13 13 15 16 18 20 19 20 20 23 25 26
33 33 30 30 29 25 29 27 31 33 37 40 30 32 33 34 39 19 13 14 23 17 12 10 10 10 10 10 10 10 11 12 13 14 15 16 18 20 20 22 23 25 25 26
35 29 29 30 27 26 25 31 33 34 37 36 32 30 45 26 26 28 23 24 23 18 12 10 10 10 11 11 11 10 11 13 14 14 16 17 18 19 20 21 23 24 25 27
33 32 30 27 32 29 28 32 41 41 37 38 40 37 31 30 30 30 24 27 23 14 10 8 9 10 12 12 12 12 11 14 14 15 17 18 18 19 20 22 23 25 27 27
38 42 26 27 29 33 28 28 35 47 46 55 42 43 39 32 28 26 26 22 18 16 13 9 11 14 14 14 14 13 13 14 14 15 17 18 17 18 20 21 23 25 26 27
39 43 30 26 28 25 30 34 32 41 46 52 47 43 41 32 30 27 25 16 18 21 17 13 14 16 16 15 16 16 16 16 16 16 16 17 17 17 19 20 22 24 25 26
42 45 37 33 32 33 33 29 35 33 46 52 58 54 49 42 32 23 19 21 26 22 20 18 20 20 18 18 18 19 18 19 18 18 18 18 17 17 18 19 22 23 24 26
37 39 42 32 37 38 36 39 36 37 40 49 55 47 24 20 27 32 33 24 22 24 24 25 25 21 20 20 21 21 21 20 20 18 18 18 18 18 18 20 21 22 24 26
37 40 48 48 39 38 39 42 38 43 46 42 48 57 26 25 25 29 40 36 36 30 30 28 24 24 24 24 24 24 23 22 22 20 19 19 19 18 19 19 20 21 24 26
39 43 52 53 47 39 42 41 42 43 45 52 52 57 40 48 47 45 44 39 37 36 33 32 30 28 28 28 27 26 24 24 22 21 21 19 19 19 19 19 20 22 25 27
36 44 50 57 52 38 38 42 42 44 49 53 55 56 59 59 54 55 50 46 41 39 38 36 33 33 32 30 28 26 25 23 21 21 21 21 20 20 19 20 21 23 24 27
42 51 48 50 54 61 58 53 43 46 47 51 55 54 53 58 57 52 52 48 49 51 46 41 38 38 34 31 29 26 25 23 23 23 23 22 20 18 18 19 21 22 25 27
37 46 45 50 50 54 61 58 58 59 58 59 58 60 50 46 50 54 49 54 50 52 48 47 44 40 37 33 30 28 26 24 22 23 23 20 20 19 19 19 20 22 25 27
46 47 48 60 54 55 60 52 49 48 52 53 56 51 49 55 51 51 57 54 51 53 51 47 46 41 35 32 29 27 24 21 22 22 21 20 19 19 19 19 20 23 25 25
58 56 58 69 62 68 60 52 49 55 55 55 55 55 53 55 58 57 54 48 47 48 49 43 39 34 28 27 23 20 19 18 18 19 19 18 19 20 20 21 22 25 24 25
58 63 65 65 66 67 51 48 47 51 62 58 63 64 60 63 54 59 51 40 36 40 35 34 32 30 25 21 18 18 18 18 19 20 20 18 19 20 20 22 23 23 24 24
54 54 64 63 71 76 63 54 54 59 69 52 58 62 65 60 54 56 46 37 33 31 31 29 28 27 25 22 19 18 20 23 23 20 18 19 19 19 20 21 21 22 23 24
62 62 70 72 74 69 56 50 47 69 74 59 56 59 63 59 52 48 44 37 33 32 32 28 26 25 23 20 19 23 21 22 19 18 19 19 17 18 17 18 20 21 21 23
72 64 64 66 76 84 49 51 62 65 56 54 53 50 50 52 50 45 42 41 37 37 35 31 28 25 23 21 22 24 24 19 17 17 17 19 18 17 17 17 18 19 21 23
62 60 59 56 58 44 34 39 41 41 44 47 48 47 46 46 46 46 43 44 40 39 36 32 29 28 27 26 25 26 23 19 17 16 16 15 15 16 16 19 18 17 19 21
47 43 49 56 45 47 49 45 40 39 42 45 46 49 47 48 50 53 50 48 45 40 41 36 33 33 33 29 27 25 21 19 17 16 15 15 15 15 16 16 15 15 17 19
59 60 62 69 67 61 58 61 60 64 58 55 50 50 52 54 56 55 57 58 52 49 45 42 39 38 36 31 28 24 21 18 18 16 16 15 15 13 12 13 12 14 15 18
63 67 69 76 69 65 65 62 66 68 69 66 64 66 64 61 62 60 63 63 58 53 51 50 44 41 37 31 29 26 22 20 19 19 18 17 14 12 12 11 12 12 14 16
Wind_Direction
305 301 291 306 302 301 304 304 303 305 308 304 301 300 305 306 304 308 306 309 308 303 302 294 273 259 251 246 251 258 263 266 275 285 290 295 296 299 302 306 309 313 316 318
299 290 290 305 305 302 300 302 298 303 308 307 307 302 305 302 265 261 302 309 313 313 304 297 275 251 246 251 259 266 271 274 277 287 291 298 295 298 300 304 307 311 313 315
282 289 306 306 303 302 297 294 298 304 307 306 308 302 309 315 316 313 308 313 314 311 301 293 265 247 246 252 258 267 272 278 280 285 291 295 299 299 297 299 303 306 310 313
288 295 292 294 294 297 298 301 298 304 307 302 313 273 288 298 312 315 314 323 322 319 310 292 264 253 252 259 268 272 275 281 282 281 286 284 288 292 294 298 302 305 308 311
287 296 295 292 295 300 298 308 306 305 302 305 301 282 271 313 311 316 315 322 325 324 304 285 270 261 264 267 270 275 286 286 285 281 281 282 286 292 296 297 299 302 307 310
287 298 296 295 299 300 303 303 304 305 304 287 300 293 308 314 322 321 324 324 322 328 315 293 284 275 274 275 272 278 288 290 286 280 278 280 285 288 290 291 296 301 306 310
292 280 291 291 291 298 294 296 298 297 297 285 308 299 283 308 308 308 312 319 323 327 322 289 282 278 279 267 259 277 288 290 285 280 278 278 282 285 286 289 294 299 304 308
290 290 279 285 279 291 288 288 289 294 296 297 301 295 302 309 306 308 314 318 323 319 316 292 280 289 284 272 268 271 282 294 291 285 280 280 281 284 286 289 294 298 303 307
286 285 293 285 290 285 288 284 295 291 293 296 295 294 301 305 305 305 312 321 316 314 306 294 292 291 283 273 270 272 281 288 292 285 282 276 279 281 285 289 293 298 302 307
285 284 285 287 287 283 280 293 289 290 291 290 269 297 299 306 303 305 319 319 313 314 308 296 295 292 284 281 275 280 277 282 290 286 281 277 276 280 285 289 291 297 303 307
283 281 281 285 276 277 280 279 281 287 283 287 291 294 322 326 323 315 312 320 322 317 307 300 297 292 287 285 281 279 279 281 286 281 279 277 276 278 282 287 292 297 303 307
281 285 279 274 282 282 277 276 272 277 279 281 282 269 307 305 320 314 310 307 310 309 306 302 297 289 288 287 285 283 280 280 283 280 278 274 275 277 280 286 292 297 302 307
282 278 278 279 279 280 279 275 273 274 278 274 277 276 294 293 299 301 304 304 303 302 301 299 293 290 289 287 286 284 280 279 281 279 278 274 270 272 276 283 290 297 303 308
286 276 273 272 276 289 280 277 274 271 272 276 274 282 290 294 299 298 297 297 299 298 298 297 293 292 292 288 286 284 280 278 278 276 275 271 266 270 276 284 291 298 304 308
286 277 276 277 277 279 280 278 278 274 275 277 283 286 290 294 298 299 300 299 299 297 298 297 293 293 292 290 287 284 282 277 275 275 273 269 267 269 275 282 290 298 303 308
281 282 282 278 279 279 279 277 276 275 277 280 282 285 286 289 294 297 300 299 299 298 299 298 295 292 289 287 285 284 280 275 271 272 271 267 264 267 272 281 289 296 302 308
280 283 282 281 282 280 276 273 271 272 275 278 279 280 287 291 291 291 297 296 297 298 301 301 300 297 291 286 284 281 277 274 271 271 270 266 265 268 275 282 289 295 301 308
274 277 279 282 284 274 276 278 270 271 276 278 281 286 286 288 293 298 295 293 294 299 300 303 304 304 301 296 291 286 279 272 269 272 271 265 266 271 276 282 289 295 302 307
269 274 276 277 276 278 283 277 275 275 277 279 283 286 288 292 296 292 293 291 290 297 299 302 304 304 303 302 296 287 283 277 275 274 273 269 270 271 276 282 290 298 304 309
271 269 270 274 276 275 278 276 278 281 279 282 284 287 290 294 290 293 300 300 297 296 301 302 305 303 299 298 295 287 281 277 277 275 270 269 271 273 278 285 291 299 305 310
277 273 270 272 275 277 280 283 288 274 281 284 284 287 290 290 290 294 300 299 301 300 298 301 304 302 298 293 290 293 291 280 274 277 278 273 271 272 275 284 292 297 304 311
270 272 273 276 276 276 285 282 271 279 285 287 290 291 291 292 294 293 293 294 296 294 295 296 297 301 299 295 290 289 287 285 282 277 274 273 275 278 282 287 292 298 305 312
273 277 280 281 283 296 304 294 298 304 300 297 297 299 302 301 300 300 298 297 295 294 295 295 295 294 295 293 288 286 286 283 280 275 276 271 272 280 285 289 296 302 307 314
285 291 285 292 292 292 295 301 304 307 305 305 303 303 302 300 300 296 296 297 296 293 293 294 294 293 294 291 287 283 282 277 272 271 274 271 271 276 283 292 298 304 309 318
280 285 284 284 286 289 289 291 295 291 294 297 299 300 298 297 295 296 296 291 292 291 290 291 292 293 294 289 281 279 275 267 261 267 268 269 273 276 280 292 296 305 315 323
279 279 280 281 286 288 289 289 289 291 291 292 294 293 291 291 291 292 287 286 289 290 284 285 288 290 290 285 277 274 269 259 256 263 264 261 262 266 278 285 296 307 316 327